TimeGMT,TemperatureF,Dew PointF,Humidity,Sea Level PressureIn,VisibilityMPH,Wind Direction,Wind SpeedMPH,Gust SpeedMPH,PrecipitationIn,Events,Conditions,WindDirDegrees,DateUTC
12:00 AM,29,28,96,29.37,2,NE,6.7,,,Fog,Patches of Fog,40,2013-01-22 00:00:00
12:00 AM,28.4,28.4,100,29.36,1.6,NE,4.6,-,N/A,Fog,Shallow Fog,40,2013-01-22 00:00:00
12:30 AM,28.4,26.6,93,29.36,1.9,NE,4.6,-,N/A,Fog,Shallow Fog,50,2013-01-22 00:30:00
1:00 AM,28.4,28.4,100,29.36,0.5,NNE,1.2,-,N/A,Fog,Light Freezing Fog,20,2013-01-22 01:00:00
1:30 AM,30.2,28.4,93,29.39,0.3,NE,3.5,-,N/A,Fog,Light Freezing Fog,50,2013-01-22 01:30:00
2:00 AM,30.2,28.4,93,29.39,0.4,ESE,1.2,-,N/A,Fog,Light Freezing Fog,110,2013-01-22 02:00:00
2:30 AM,-9999,-9999,N/A,29.39,0.2,East,1.2,-,N/A,Fog,Light Freezing Fog,100,2013-01-22 02:30:00
3:00 AM,30.2,30.2,100,29.39,0.2,South,2.3,-,N/A,Fog,Light Freezing Fog,180,2013-01-22 03:00:00
3:30 AM,30.2,30.2,100,29.39,0.2,SW,2.3,-,N/A,Fog,Light Freezing Fog,220,2013-01-22 03:30:00
4:00 AM,30.2,30.2,100,29.42,0.2,SSW,3.5,-,N/A,Fog,Light Freezing Fog,210,2013-01-22 04:00:00
4:30 AM,30.2,28.4,93,29.42,0.2,SW,1.2,-,N/A,Fog,Light Freezing Fog,230,2013-01-22 04:30:00
5:00 AM,30.2,28.4,93,29.42,0.2,East,3.5,-,N/A,Fog,Light Freezing Fog,100,2013-01-22 05:00:00
5:30 AM,30.2,28.4,93,29.42,0.2,East,3.5,-,N/A,Fog,Light Freezing Fog,90,2013-01-22 05:30:00
6:00 AM,29,28,96,29.44,0,NNE,4.5,,,Fog,Partial Fog,30,2013-01-22 06:00:00
6:00 AM,28.4,28.4,100,29.42,0.1,NNE,3.5,-,N/A,Fog,Light Freezing Fog,30,2013-01-22 06:00:00
6:30 AM,26.6,26.6,100,29.44,0.2,North,3.5,-,N/A,Fog,Light Freezing Fog,10,2013-01-22 06:30:00
7:00 AM,26.6,26.6,100,29.44,0.1,West,1.2,-,N/A,Fog,Light Freezing Fog,280,2013-01-22 07:00:00
7:30 AM,26.6,26.6,100,29.47,0.1,Calm,Calm,-,N/A,Fog,Light Freezing Fog,0,2013-01-22 07:30:00
8:00 AM,26.6,26.6,100,29.47,0.1,ENE,2.3,-,N/A,Fog,Light Freezing Fog,60,2013-01-22 08:00:00
8:30 AM,28.4,26.6,93,29.50,0.1,ENE,4.6,-,N/A,Fog,Light Freezing Fog,60,2013-01-22 08:30:00
9:00 AM,28.4,26.6,93,29.50,0.1,NE,2.3,-,N/A,Fog,Light Freezing Fog,40,2013-01-22 09:00:00
9:30 AM,28.4,26.6,93,29.53,-9999.0,East,4.6,-,N/A,Fog,Light Freezing Fog,90,2013-01-22 09:30:00
10:00 AM,28.4,26.6,93,29.53,0.1,NE,1.2,-,N/A,Fog,Light Freezing Fog,50,2013-01-22 10:00:00
10:30 AM,28.4,26.6,93,29.53,0.1,ESE,4.6,-,N/A,Fog,Light Freezing Fog,110,2013-01-22 10:30:00
11:00 AM,28.4,28.4,100,29.56,0.1,ESE,4.6,-,N/A,Fog,Light Freezing Fog,110,2013-01-22 11:00:00
11:30 AM,28.4,26.6,93,29.56,0.1,SE,4.6,-,N/A,Fog,Light Freezing Fog,130,2013-01-22 11:30:00
12:00 PM,28,28,99,29.59,0,SE,4.5,,,Fog,Partial Fog,140,2013-01-22 12:00:00
12:00 PM,28.4,28.4,100,29.56,0.1,SE,3.5,-,N/A,Fog,Light Freezing Fog,140,2013-01-22 12:00:00
12:30 PM,28.4,28.4,100,29.59,0.1,SE,4.6,-,N/A,Fog,Light Freezing Fog,140,2013-01-22 12:30:00
1:00 PM,28.4,28.4,100,29.59,0.1,SE,4.6,-,N/A,Fog,Light Freezing Fog,130,2013-01-22 13:00:00
1:30 PM,28.4,28.4,100,29.59,0.1,SSE,2.3,-,N/A,Fog,Light Freezing Fog,150,2013-01-22 13:30:00
2:00 PM,30.2,30.2,100,29.59,0.2,ESE,5.8,-,N/A,Fog,Light Freezing Fog,110,2013-01-22 14:00:00
2:30 PM,30.2,30.2,100,29.59,0.2,SE,4.6,-,N/A,Fog,Light Freezing Fog,140,2013-01-22 14:30:00
3:00 PM,32.0,30.2,93,29.59,0.4,SE,3.5,-,N/A,Fog,Light Freezing Fog,140,2013-01-22 15:00:00
3:30 PM,32.0,32.0,100,29.62,0.4,ESE,4.6,-,N/A,Fog,Light Freezing Fog,120,2013-01-22 15:30:00
4:00 PM,32.0,32.0,100,29.62,0.2,ESE,4.6,-,N/A,Fog,Fog,120,2013-01-22 16:00:00
4:30 PM,32.0,32.0,100,29.62,0.1,ESE,6.9,-,N/A,Fog,Light Freezing Fog,110,2013-01-22 16:30:00
5:00 PM,32.0,32.0,100,29.62,0.1,ESE,6.9,-,N/A,Fog,Light Freezing Fog,110,2013-01-22 17:00:00
5:30 PM,32.0,30.2,93,29.65,0.1,ESE,6.9,-,N/A,Fog,Light Freezing Fog,120,2013-01-22 17:30:00
6:00 PM,31,31,97,29.66,0,ESE,11.2,,,Fog,Partial Fog,120,2013-01-22 18:00:00
6:00 PM,30.2,30.2,100,29.65,0.2,ESE,9.2,-,N/A,Fog,Light Freezing Fog,120,2013-01-22 18:00:00
6:30 PM,30.2,30.2,100,29.65,0.3,ESE,2.3,-,N/A,Fog,Light Freezing Fog,120,2013-01-22 18:30:00
7:00 PM,30.2,30.2,100,29.65,0.5,ESE,2.3,-,N/A,Fog,Light Freezing Fog,110,2013-01-22 19:00:00
7:30 PM,30.2,30.2,100,29.68,1.4,ESE,8.1,-,N/A,,Mostly Cloudy,110,2013-01-22 19:30:00
8:00 PM,32.0,32.0,100,29.68,2.5,ESE,9.2,-,N/A,,Scattered Clouds,110,2013-01-22 20:00:00
8:30 PM,32.0,32.0,100,29.68,2.5,ESE,8.1,-,N/A,,Mostly Cloudy,120,2013-01-22 20:30:00
9:00 PM,32.0,32.0,100,29.68,2.5,SE,9.2,-,N/A,Rain,Light Rain,130,2013-01-22 21:00:00
9:30 PM,33.8,32.0,93,29.68,2.5,ESE,11.5,-,N/A,,Mostly Cloudy,110,2013-01-22 21:30:00
10:00 PM,33.8,32.0,93,29.68,2.5,ESE,10.4,-,N/A,,Mostly Cloudy,110,2013-01-22 22:00:00
10:30 PM,33.8,32.0,93,29.71,2.5,ESE,9.2,-,N/A,,Mostly Cloudy,120,2013-01-22 22:30:00
11:00 PM,33.8,32.0,93,29.71,2.5,ESE,8.1,-,N/A,,Mostly Cloudy,120,2013-01-22 23:00:00
11:30 PM,33.8,32.0,93,29.71,5.0,ESE,8.1,-,N/A,,Mostly Cloudy,120,2013-01-22 23:30:00